When you browse on this site, cookies collect data to enhance your experience and personalize the content and advertising you see.
Visit our Privacy Policy to learn more. By continuing to use the site, you agree to this use of cookies and data.
  • In Portugal
  • List of Countries
  • For 7 days
  • Water Temperature
  • Weather Map
  • Weather Widgets
  • user-avatar
    Login

    Hourly Weather Klagenfurt

    Today, 24 February, Monday

    Time Temperature Precipitation Wind Pressure Humidity
    00:00 +4°C° 0 mm 2 mps 689 mmHg 91%
    01:00 +4°C° 0 mm 2 mps 689 mmHg 92%
    02:00 +4°C° 0 mm 2 mps 689 mmHg 91%
    03:00 +5°C° 0 mm 1 mps 689 mmHg 91%
    04:00 +5°C° 0 mm 1 mps 689 mmHg 90%
    05:00 +5°C° 0 mm 1 mps 690 mmHg 90%
    06:00 +5°C° 0 mm 1 mps 691 mmHg 90%
    07:00 +4°C° 0 mm 0 mps 691 mmHg 90%
    08:00 +5°C° 0 mm 0 mps 692 mmHg 86%
    09:00 +8°C° 0 mm 1 mps 693 mmHg 81%
    10:00 +9°C° 0 mm 1 mps 694 mmHg 77%
    11:00 +9°C° 0 mm 1 mps 694 mmHg 79%
    12:00 +9°C° 0 mm 1 mps 693 mmHg 80%
    13:00 +9°C° 0 mm 1 mps 693 mmHg 81%
    14:00 +8°C° 0 mm 1 mps 693 mmHg 83%
    15:00 +8°C° 0 mm 1 mps 692 mmHg 84%
    16:00 +8°C° 0 mm 1 mps 691 mmHg 85%
    17:00 +7°C° 0 mm 1 mps 691 mmHg 87%
    18:00 +6°C° 0 mm 1 mps 691 mmHg 89%
    19:00 +5°C° 0 mm 1 mps 690 mmHg 92%
    20:00 +5°C° 0 mm 1 mps 690 mmHg 92%
    21:00 +3°C° 0 mm 0 mps 689 mmHg 93%
    22:00 +3°C° 0 mm 0 mps 689 mmHg 93%
    23:00 +3°C° 0 mm 0 mps 688 mmHg 93%

    Tomorrow, 25 February, Tuesday

    Time Temperature Precipitation Wind Pressure Humidity
    00:00 +4°C° 0 mm 1 mps 688 mmHg 94%
    01:00 +4°C° 0 mm 1 mps 687 mmHg 94%
    02:00 +4°C° 0 mm 1 mps 687 mmHg 94%
    03:00 +5°C° 0 mm 1 mps 686 mmHg 94%
    04:00 +5°C° 0 mm 1 mps 686 mmHg 95%
    05:00 +5°C° 0 mm 1 mps 686 mmHg 95%
    06:00 +5°C° 0 mm 1 mps 685 mmHg 95%
    07:00 +5°C° 0 mm 1 mps 685 mmHg 96%
    08:00 +6°C° 0 mm 1 mps 685 mmHg 93%
    09:00 +7°C° 0 mm 1 mps 685 mmHg 90%
    10:00 +7°C° 0 mm 1 mps 684 mmHg 87%
    11:00 +8°C° 0 mm 1 mps 684 mmHg 83%
    12:00 +9°C° 0 mm 1 mps 683 mmHg 80%
    13:00 +9°C° 0 mm 1 mps 683 mmHg 76%
    14:00 +9°C° 0.1 mm 1 mps 682 mmHg 78%
    15:00 +9°C° 0.1 mm 1 mps 682 mmHg 80%
    16:00 +7°C° 0.1 mm 2 mps 681 mmHg 81%
    17:00 +8°C° 0.2 mm 1 mps 681 mmHg 85%
    18:00 +7°C° 0.2 mm 1 mps 681 mmHg 89%
    19:00 +6°C° 0.2 mm 1 mps 680 mmHg 93%
    20:00 +6°C° 0.2 mm 1 mps 680 mmHg 93%
    21:00 +6°C° 0.2 mm 1 mps 679 mmHg 94%
    22:00 +6°C° 0.2 mm 1 mps 679 mmHg 94%
    23:00 +6°C° 0.4 mm 1 mps 679 mmHg 94%

    Day after tomorrow, 26 February, Wednesday

    Time Temperature Precipitation Wind Pressure Humidity
    00:00 +6°C° 0.4 mm 1 mps 678 mmHg 94%
    01:00 +6°C° 0.4 mm 1 mps 678 mmHg 94%
    02:00 +6°C° 0.5 mm 1 mps 677 mmHg 94%
    03:00 +5°C° 0.5 mm 0 mps 677 mmHg 94%
    04:00 +5°C° 0.5 mm 0 mps 676 mmHg 95%
    05:00 +4°C° 0.8 mm 0 mps 676 mmHg 95%
    06:00 +4°C° 0.8 mm 0 mps 675 mmHg 96%
    07:00 +4°C° 0.8 mm 0 mps 675 mmHg 97%
    08:00 +5°C° 1 mm 1 mps 675 mmHg 96%
    09:00 +5°C° 1 mm 1 mps 674 mmHg 95%
    10:00 +5°C° 1 mm 1 mps 674 mmHg 94%
    11:00 +4°C° 2.3 mm 1 mps 674 mmHg 95%
    12:00 +2°C° 2.3 mm 2 mps 674 mmHg 95%
    13:00 +1°C° 2.3 mm 2 mps 674 mmHg 95%
    14:00 +1°C° 3.3 mm 2 mps 674 mmHg 95%
    15:00 +1°C° 3.3 mm 1 mps 675 mmHg 94%
    16:00 0°C° 3.3 mm 1 mps 675 mmHg 94%
    17:00 0°C° 0.5 mm 1 mps 675 mmHg 92%
    18:00 -1°C° 0.5 mm 1 mps 676 mmHg 90%
    19:00 -1°C° 0.5 mm 1 mps 676 mmHg 88%
    20:00 -1°C° 0 mm 1 mps 677 mmHg 88%
    21:00 -2°C° 0 mm 1 mps 677 mmHg 88%
    22:00 -2°C° 0 mm 1 mps 678 mmHg 87%
    23:00 -2°C° 0 mm 1 mps 678 mmHg 87%

    27 February, Thursday

    Time Temperature Precipitation Wind Pressure Humidity
    00:00 -2°C° 0 mm 1 mps 679 mmHg 86%
    01:00 -2°C° 0 mm 1 mps 679 mmHg 85%
    02:00 -3°C° 0 mm 1 mps 679 mmHg 85%
    03:00 -3°C° 0 mm 1 mps 680 mmHg 84%
    04:00 -3°C° 0 mm 1 mps 680 mmHg 83%
    05:00 -3°C° 0 mm 1 mps 681 mmHg 82%
    06:00 -4°C° 0 mm 1 mps 681 mmHg 80%
    07:00 -4°C° 0 mm 1 mps 682 mmHg 79%
    08:00 -2°C° 0 mm 1 mps 683 mmHg 74%
    09:00 0°C° 0 mm 1 mps 684 mmHg 68%
    10:00 +2°C° 0 mm 1 mps 685 mmHg 62%
    11:00 +3°C° 0 mm 1 mps 685 mmHg 59%
    12:00 +3°C° 0 mm 1 mps 685 mmHg 56%
    13:00 +4°C° 0 mm 1 mps 686 mmHg 54%
    14:00 +4°C° 0 mm 1 mps 685 mmHg 56%
    15:00 +4°C° 0 mm 1 mps 685 mmHg 58%
    16:00 +4°C° 0 mm 1 mps 685 mmHg 59%
    17:00 +2°C° 0 mm 1 mps 685 mmHg 66%
    18:00 0°C° 0 mm 1 mps 684 mmHg 72%
    19:00 -2°C° 0 mm 1 mps 684 mmHg 78%
    20:00 -2°C° 0 mm 1 mps 684 mmHg 79%
    21:00 -2°C° 0 mm 1 mps 684 mmHg 80%
    22:00 -2°C° 0 mm 1 mps 684 mmHg 81%
    23:00 -2°C° 0 mm 1 mps 683 mmHg 83%

    28 February, Friday

    Time Temperature Precipitation Wind Pressure Humidity
    00:00 -2°C° 0 mm 1 mps 683 mmHg 85%
    01:00 -2°C° 0 mm 1 mps 682 mmHg 86%
    02:00 -2°C° 0 mm 1 mps 682 mmHg 85%
    03:00 -2°C° 0 mm 1 mps 681 mmHg 84%
    04:00 -2°C° 0 mm 1 mps 681 mmHg 83%
    05:00 -3°C° 0 mm 1 mps 681 mmHg 81%
    06:00 -3°C° 0 mm 1 mps 681 mmHg 79%
    07:00 -3°C° 0 mm 1 mps 681 mmHg 77%
    08:00 -3°C° 0 mm 2 mps 681 mmHg 73%
    09:00 -1°C° 0 mm 2 mps 682 mmHg 69%
    10:00 +2°C° 0 mm 2 mps 682 mmHg 65%
    11:00 +3°C° 0 mm 2 mps 682 mmHg 65%
    12:00 +4°C° 0 mm 2 mps 683 mmHg 65%
    13:00 +5°C° 0 mm 2 mps 683 mmHg 65%
    14:00 +4°C° 0 mm 2 mps 683 mmHg 68%
    15:00 +4°C° 0 mm 2 mps 683 mmHg 70%
    16:00 +4°C° 0 mm 2 mps 683 mmHg 73%
    17:00 +2°C° 0 mm 2 mps 683 mmHg 77%
    18:00 +1°C° 0 mm 2 mps 683 mmHg 81%
    19:00 0°C° 0 mm 1 mps 683 mmHg 85%
    20:00 0°C° 0 mm 1 mps 683 mmHg 86%
    21:00 0°C° 0 mm 1 mps 683 mmHg 88%
    22:00 0°C° 0 mm 1 mps 683 mmHg 89%
    23:00 +1°C° 0 mm 1 mps 683 mmHg 90%

    29 February, Saturday

    Time Temperature Precipitation Wind Pressure Humidity
    00:00 +1°C° 0 mm 1 mps 683 mmHg 90%
    01:00 +2°C° 0 mm 1 mps 682 mmHg 91%
    02:00 +2°C° 0 mm 1 mps 682 mmHg 92%
    03:00 +2°C° 0 mm 1 mps 681 mmHg 93%
    04:00 +3°C° 0 mm 1 mps 681 mmHg 94%
    05:00 +3°C° 0 mm 1 mps 680 mmHg 94%
    06:00 +3°C° 0 mm 1 mps 680 mmHg 94%
    07:00 +3°C° 0 mm 1 mps 679 mmHg 94%
    08:00 +4°C° 0 mm 1 mps 679 mmHg 92%
    09:00 +4°C° 0 mm 2 mps 679 mmHg 89%
    10:00 +5°C° 0 mm 2 mps 679 mmHg 87%
    11:00 +5°C° 0 mm 2 mps 679 mmHg 85%
    12:00 +6°C° 0 mm 2 mps 678 mmHg 84%
    13:00 +5°C° 0 mm 3 mps 678 mmHg 83%
    14:00 +6°C° 0 mm 2 mps 678 mmHg 84%
    15:00 +5°C° 0 mm 2 mps 677 mmHg 86%
    16:00 +5°C° 0 mm 2 mps 677 mmHg 87%
    17:00 +5°C° 0 mm 1 mps 677 mmHg 89%
    18:00 +5°C° 0 mm 1 mps 678 mmHg 90%
    19:00 +4°C° 0 mm 1 mps 678 mmHg 91%
    20:00 +3°C° 0 mm 1 mps 679 mmHg 91%
    21:00 +3°C° 0 mm 1 mps 679 mmHg 91%
    22:00 +3°C° 0 mm 1 mps 680 mmHg 91%
    23:00 +1°C° 0 mm 0 mps 679 mmHg 91%
    Show more